Location: ??????
(38.0131°N, 23.7723°E)
Time: 06:11:31
(UTC+00:00)

Landsat 5 - Pass Details

Date: 17 October 2021
Orbit: 528 x 652 km, 98.2° (Epoch: 28 November)

Event Time Altitude Azimuth Distance (km) Brightness Sun altitude
Rises 16:21:20 0° 15° (NNE) 2,891 6.8 -8.0°
Reaches altitude 10° 16:23:31 10° 18° (NNE) 1,999 5.9 -8.4°
Maximum altitude 16:27:52 69° 102° (ESE) 683 3.6 -9.3°
Drops below altitude 10° 16:32:18 10° 186° (S) 2,036 6.3 -10.2°
Sets 16:34:32 0° 188° (S) 2,950 7.2 -10.6°
